Airfield :
LOGIN :

Register | Disclaimer

   EN    FR    IT 

 










Legend :    VFR   Marginal VFR   IFR   Intensive IFR   Very Intensive IFR
Visi :
Ceiling :
>= 8 km
>= 3000ft
5 to 8 km
1000 to 3000 ft
1500m to 5 km
500 to 1000 ft
800 to 1500m
200 to 500 ft
< 800m
< 200 ft
Symbols :   Thunderstorms  Fog  Heavy snow  Heavy precipitations  Wind > 20 kt
SIGMETs :     Misc.  Thunderstorms  Icing  Turbulence  Mountain Waves  Volcanic Ashes






- Airport Elevation : 24 ft
- IATA code : SGD


EKSB - Sonderborg

CURRENT METAR :
  • 101750Z AUTO 14006KT 9999NDV BKN160/// 05/M00 Q1015

EXPIRED METARs :
  • 101720Z AUTO 14007KT 9999NDV SCT180/// 06/M00 Q1015
  • 101650Z AUTO 12007KT 9999NDV NCD 06/M01 Q1015
  • 101620Z AUTO 13006KT 9999NDV FEW056/// 07/M02 Q1015
  • 101550Z AUTO 11004KT 050V140 9999NDV SCT055/// 08/M01 Q1015

Expired Forecast.



MET'MAP, your aeronautical weather chart ! - Copyright ORBIFLY December 2007 - Disclaimer

ORBIFLY MET'MAP TEAM :

Programming & Development : Alexandra Zaïnal
Concept & original design : Baudouin d'Aumeries
Assistance for programming : Marc-Olivier Méhu
Technical & hardware support : Manuel Goepfert

Contact : metmap@orbifly.com




SOURCES & CREDITS :

   NOAA